Regional Weather Roundup
Issued by NWS Wilmington, NC

Home | Current Version | Previous Version | Text Only | Print | Product List | Glossary On
Versions: 1 2 3 4 5 6 7 8 9 10 11 12 13 14 15 16 17 18 19 20 21 22 23 24 25 26 27 28 29 30 31 32 33 34 35 36 37 38 39 40 41 42 43 44 45 46 47 48 49 50
000
ASUS42 KILM 242110
RWRILM
RWRILM
REGIONAL HOURLY WEATHER ROUNDUP
NATIONAL WEATHER SERVICE WILMINGTON NC
400 PM EST MON NOV 24 2014

NOTE: "FAIR" INDICATES FEW OR NO CLOUDS BELOW 12,000 FEET WITH NO
SIGNIFICANT WEATHER AND/OR OBSTRUCTIONS TO VISIBILITY.

...............WFO WILMINGTON COUNTY WARNING AREA...............

......COASTAL NC AND SC COUNTIES......

CITY           SKY/WX    TMP DP  RH WIND       PRES   REMARKS
WILMINGTON     CLOUDY    71  69  93 SW16G24   29.87R FOG
SOUTHPORT      CLOUDY    67  65  94 SW6       29.88S FOG
N MYRTLE BEACH FOG       67  66  97 SW17G28   29.87R VSB 3/4
MYRTLE BEACH   CLOUDY    70  64  83 S13       29.87R FOG

......INLAND NC AND SC COUNTIES.......

CITY           SKY/WX    TMP DP  RH WIND       PRES   REMARKS
LUMBERTON      CLOUDY    69  63  81 S7        29.82S
ELIZABETHTOWN  HVY RAIN  68  65  92 SW9       29.85R
WHITEVILLE     NOT AVBL
FLORENCE       CLOUDY    69  66  90 S12       29.84R
DARLINGTON     CLOUDY    70  63  78 S12       29.83R

....................REST OF NORTH CAROLINA......................

.........EASTERN NC.........

CITY           SKY/WX    TMP DP  RH WIND       PRES   REMARKS
CAPE HATTERAS  CLOUDY    68  67  96 SW9       29.88S FOG
JACKSONVILLE   CLOUDY    70  66  88 SW8       29.86R
MOREHEAD CITY  PTCLDY    69  68  96 SW15      29.87F FOG
KENANSVILLE    CLOUDY    67  64  87 CALM      29.85R
NEW BERN       CLOUDY    73  69  87 SW10      29.87R
ELIZABETH CITY CLOUDY    72  66  81 S9G20     29.84R

.........CENTRAL NC.........

CITY           SKY/WX    TMP DP  RH WIND       PRES   REMARKS
RALEIGH DURHAM PTSUNNY   70  60  70 SW15G22   29.79R
ROCKY MOUNT    CLOUDY    71  65  81 S14       29.80R
ROANOKE RAPIDS NOT AVBL
FAYETTEVILLE   PTSUNNY   70  64  81 S10       29.80S
HOFFMAN        PTSUNNY   70  66  88 S6        29.80F

.........WESTERN NC.........

CITY           SKY/WX    TMP DP  RH WIND       PRES   REMARKS
CHARLOTTE      MOSUNNY   73  50  44 SW15G23   29.77S
GREENSBORO     MOSUNNY   71  54  54 SW17G23   29.75R
HICKORY        NOT AVBL
BOONE          NOT AVBL
ASHEVILLE      NOT AVBL

.....................REST OF SOUTH CAROLINA.....................

.........EASTERN SC.........

CITY           SKY/WX    TMP DP  RH WIND       PRES   REMARKS
CHARLESTON     CLOUDY    71  66  84 W5        29.89R
BEAUFORT MCAS  CLOUDY    69  63  81 W9        29.88R
HILTON HEAD    PTSUNNY   72  66  83 W7        29.90R

.........CENTRAL SC.........

CITY           SKY/WX    TMP DP  RH WIND       PRES   REMARKS
COLUMBIA       CLOUDY    73  63  70 SW9       29.83R
ORANGEBURG     CLOUDY    70  66  87 S10       29.84R
SUMTER SHAW    CLOUDY    70  67  91 S9        29.81R

.........WESTERN SC.........

CITY           SKY/WX    TMP DP  RH WIND       PRES   REMARKS
GREENVILLE     NOT AVBL
ROCK HILL      MOSUNNY   74  54  49 SW8       29.78S
ANDERSON       SUNNY     73  55  53 SW10      29.79R
CLEMSON        NOT AVBL
GREENWOOD      SUNNY     74  58  57 S10       29.81R


...................COASTAL AND OFFSHORE REPORTS..................

................LOCAL PIERS AND NC RESERVE................


STATION/POSITION TIME  SKY/WX   TEMP    WIND        PRES    VSBY
                                AIR SEA DIR/SP/G
                 (UTC)          (F)     (DEG/KT/KT) (MB)    (MI)
JOHNY MRCER PIER 2100            67 62  200/ 15/ 18 1010.8R
NC RESRV MASNBRO 2000            73     220/  8     1012.0S
OCEAN CREST PIER 2100            65 58  170/  6/  8 1010.7S
SPRINGMAID  PIER 2100            62 57  210/ 12/ 14 1011.4R


................COASTAL AND OFFSHORE BUOYS................


STATION/POSITION TIME  SKY/WX   TEMP    WIND        PRES    VSBY
                                AIR SEA DIR/SP/G
                 (UTC)          (F)     (DEG/KT/KT) (MB)    (MI)
DIMNDSHOAL 41025 2100            75     190/ 16/ 17 1012.2S
WVE H/P(F/S)=  7/10 WND WVE H/P(F/S)=  5/ 6 SWL H/P/D(F/S/D)=  5/170/10

CAPE LOOKOUT     2000            68     190/ 10/ 12 1011.7F
ONSLOW BAY 41036 2100            72 69  220/ 14/ 16 1011.9F
WVE H/P(F/S)=  8/ 9 WND WVE H/P(F/S)=  5/ 5 SWL H/P/D(F/S/D)=  7/130/ 9

5 WRITEBCH 41038 2000            61 60  220/ 10/ 12 1011.3R
MASONBORO  41110 2100               60                N/A
WVE H/P(F/S)=  5/ 9 WND WVE H/P(F/S)=  5/ 9 SWL H/P/D(F/S/D)=  2/130/11

WILM HARBR 41108 2100               62                N/A
WVE H/P(F/S)=  6/ 9 WND WVE H/P(F/S)=  7/ 9 SWL H/P/D(F/S/D)=  2/160/11

27WRITEBCH 41037 2000            67 66  220/ 12/ 14 1012.3F
FRYING PAN 41013 2100            73 68  210/ 12/ 14 1012.8R
WVE H/P(F/S)=  9/ 8 WND WVE H/P(F/S)=  3/ 5 SWL H/P/D(F/S/D)=  8/130/ 8

SUNST NRSH 41024 2000            62     200/ 10/ 12 1010.9F
CAPRS NRSH 41029 2000            61     280/  8/ 10   N/A
EDISTO     41004 2100            75 74  210/ 19/ 23 1011.5R
WVE H/P(F/S)=  9/ 9 WND WVE H/P(F/S)=  7/ 7 SWL H/P/D(F/S/D)=  7/ 9



..........OFFSHORE BUOYS BEYOND 100 NM OFFSHORE...........
.....IN A TRIANGLE---HAT TO BERMUDA TO BAHAMAS TO HAT.....


STATION/POSITION TIME  SKY/WX   TEMP    WIND        PRES    VSBY
                                AIR SEA DIR/SP/G
                 (UTC)          (F)     (DEG/KT/KT) (MB)    (MI)
150E HAT   41001 NOT AVBL
W BERMUDA  41048 2019            75 75  160/ 14/ 17 1021.9R
WVE H/P(F/S)=  7/ 7 WND WVE H/P(F/S)=  5/ 6 SWL H/P/D(F/S/D)=  5/120/ 7

ATLANTIC S 41049 2023            80 79   90/ 16/ 17 1023.8R
WVE H/P(F/S)=  7/ 8 WND WVE H/P(F/S)=  5/ 6 SWL H/P/D(F/S/D)=  3/ 90/ 8

E BAHAMAS  41046 2002            82 81  110/ 16/ 19 1019.0R
WVE H/P(F/S)=  8/ 7 WND WVE H/P(F/S)=  7/ 7 SWL H/P/D(F/S/D)=  5/100/ 8

NE BAHAMAS 41047 1956            79 78  140/ 10/ 12 1020.4R
WVE H/P(F/S)=  7/ 9 WND WVE H/P(F/S)=  3/ 5 SWL H/P/D(F/S/D)=  7/110/ 9

120E CANVRL41010 2100            79 78  190/ 12/ 14 1015.5R
WVE H/P(F/S)=  8/10 WND WVE H/P(F/S)=  3/ 6 SWL H/P/D(F/S/D)=  7/130/10


END



USA.gov is the U.S. government's official web portal to all federal, state and local government web resources and services.